Regional Weather Roundup
Issued by NWS Bismarck, ND

Home | Current Version | Previous Version | Text Only | Print | Product List | Glossary On
Versions: 1 2 3 4 5 6 7 8 9 10 11 12 13 14 15 16 17 18 19 20 21 22 23 24 25 26 27 28 29 30 31 32 33 34 35 36 37 38 39 40 41 42 43 44 45 46 47 48 49 50
000
ASUS43 KBIS 212259
RWRBIS

NWR BROADCAST TEXT
NATIONAL WEATHER SERVICE BISMARCK ND
500 PM CST SUN DEC 21 2014

NOTE: "FAIR" INDICATES FEW OR NO CLOUDS BELOW 12,000 FEET WITH NO
SIGNIFICANT WEATHER AND/OR OBSTRUCTIONS TO VISIBILITY.


CITY           SKY/WX    TMP DP  RH WIND       PRES   REMARKS
WILLISTON      CLOUDY    35  28  75 CALM      29.34R
MINOT          CLOUDY    35  31  85 E8        29.39R
MINOT AFB      NOT AVBL
BISMARCK       CLEAR     29  25  85 SE7       29.43S
DICKINSON      NOT AVBL
GARRISON         N/A     33  29  85 SE9       29.39R
HETTINGER ARPT CLOUDY    39  30  70 CALM      29.38R
JAMESTOWN      NOT AVBL
CARRINGTON     CLOUDY    30  30 100 MISG      29.50S FOG
CROSBY         MOCLDY    32  32 100 SE5       29.35S
OAKES            N/A     32  32 100 E12       29.52S
WATFORD CITY   MOCLDY    36  28  75 S6        29.33R
$$

CITY           SKY/WX    TMP DP  RH WIND       PRES   REMARKS
GRAND FORKS    CLOUDY    32  30  92 SE14      29.60S
GRAND FORKS AF CLOUDY    32  32 100 S12       29.59S
DEVILS LAKE    CLOUDY    30  25  80 SE13      29.49S
FARGO          CLOUDY    34  31  88 SE14      29.59S
GWINNER        CLOUDY    34  34 100 SE17      29.54S
$$

CITY           SKY/WX    TMP DP  RH WIND       PRES   REMARKS
ABERDEEN       CLOUDY    33  30  88 S15       29.51F
MOBRIDGE       PTCLDY    33  28  81 E13       29.40S
BUFFALO          N/A     38  35  89 SW6       29.32R
RAPID CITY     CLOUDY    43  26  51 N9        29.40R
GLASGOW        CLOUDY    33  30  88 CALM      29.33R
SIDNEY         MOCLDY    36  30  80 S10       29.36S
WOLF POINT     LGT RAIN  33  30  88 SW6       29.34R FOG
GLENDIVE       CLOUDY    36  32  87 S7        29.36R
MILES CITY     LGT RAIN  41  35  79 W14G30    29.39R
BAKER          CLOUDY    38  37  97 W7        29.36R
$$

CITY           SKY/WX    TMP DP  RH WIND       PRES   REMARKS
BILLINGS       MOCLDY    48  19  31 W24G41    29.49R
GREAT FALLS    CLOUDY    43  23  45 W22G31    29.52R
$$




USA.gov is the U.S. government's official web portal to all federal, state and local government web resources and services.